Regional Weather Roundup
Issued by NWS

Home | Current Version | Previous Version | Text Only | Print | Product List | Glossary On
Versions: 1 2 3 4 5 6 7 8 9 10 11 12 13 14 15 16 17 18 19 20 21 22 23 24 25 26 27 28 29 30 31 32 33 34 35 36 37 38 39 40 41 42 43 44 45 46 47 48 49 50
000
ASUS43 KMKX 310311
RWRWI

WISCONSIN REGIONAL WEATHER ROUNDUP
NATIONAL WEATHER SERVICE MILWAUKEE/SULLIVAN WI
1000 PM CDT SUN AUG 30 2015

NOTE: "FAIR" INDICATES FEW OR NO CLOUDS BELOW 12,000 FEET WITH NO
SIGNIFICANT WEATHER AND/OR OBSTRUCTIONS TO VISIBILITY.

WIZ001-002-006>008-014>016-023>028-310400-
NORTHWEST WISCONSIN

CITY           SKY/WX    TMP DP  RH WIND       PRES   REMARKS
SUPERIOR ARPT  CLEAR     66  64  91 SW3       29.87S
ASHLAND        CLEAR     66  65  96 S7        29.90S
HAYWARD        CLEAR     67  63  87 S7        29.94S
SIREN          CLEAR     69  64  84 S6        29.93S
CUMBERLAND     CLEAR     63  63 100 S6        29.96S
RICE LAKE      CLEAR     64  61  91 SE5       29.97S
CHETEK         CLEAR    N/A N/A N/A SE3       29.96S
LADYSMITH      CLEAR     65  63  91 S5        29.99S
EAU CLAIRE     CLEAR     66  63  90 S5        29.96F
MENOMONIE      CLEAR     64  62  95 SE5       29.97S
NEW RICHMOND   CLEAR     67  65  94 S7        29.95F
OSCEOLA        CLEAR     67  67 100 S7        29.96S
$$

WIZ003>005-009-010-017-018-310400-
NORTH CENTRAL WISCONSIN

CITY           SKY/WX    TMP DP  RH WIND       PRES   REMARKS
MANITOWISH WTR CLEAR     64  64 100 SW5       29.97S
ARBOR VITAE    CLEAR     65  63  92 SW7       29.98S
WOODRUFF       CLEAR     65  63  92 SW7       29.98S
RHINELANDER    CLEAR     67  62  84 SW9       29.99F
EAGLE RIVER    CLEAR     65  63  91 CALM      29.97S
LAND O LAKES   CLEAR     66  62  87 CALM      29.97F
PHILLIPS       CLEAR     65  63  94 SW6       29.98S
TOMAHAWK       CLEAR     62  61  95 CALM      30.00S
MEDFORD        CLEAR     62  62  97 S5        30.00S
MERRILL        CLEAR     62  62 100 CALM      30.00S
$$

WIZ029-030-035-036-043>047-310400-
CENTRAL WISCONSIN

CITY           SKY/WX    TMP DP  RH WIND       PRES   REMARKS
WAUSAU         CLEAR     66  63  90 SW6       29.99R
MOSINEE        CLEAR     64  63  94 SW5       30.01S
MARSHFIELD     CLEAR     64  60  87 SW5       30.00F
STEVENS POINT  CLEAR     64  62  95 SW6       30.01S
WAUPACA        CLEAR     65  64  97 CALM      30.00S
WAUTOMA        CLEAR     63  63 100 CALM      30.01S
WISC RAPIDS    CLEAR     63  61  93 S3        30.01F
CAMP DOUGLAS   CLEAR     57  57 100 S3        30.00S FOG
$$

WIZ011>013-019>022-031-037>040-048>050-310400-
NORTHEAST WISCONSIN

CITY           SKY/WX    TMP DP  RH WIND       PRES   REMARKS
ANTIGO         CLEAR     64  63  96 SW6       30.00F
SHAWANO        CLEAR     68  64  88 SW3       29.99S
OCONTO         CLEAR     65  65 100 S3        29.97S
STURGEON BAY   CLEAR     63  59  88 S8        30.01R
GREEN BAY      CLEAR     65  63  93 S5        29.99S
MANITOWOC      CLEAR     61  60  97 MISG      30.01F FOG
APPLETON       CLEAR     63  63 100 S6        29.99S
CLINTONVILLE   CLEAR     63  63 100 SW5       29.99S
OSHKOSH        CLEAR     62  60  93 S6        30.00S
$$

WIZ032>034-041-042-053>061-310400-
SOUTHWEST WISCONSIN

CITY           SKY/WX    TMP DP  RH WIND       PRES   REMARKS
LA CROSSE      CLEAR     67  63  87 S5        29.98S
SPARTA         CLEAR     60  59  95 CALM      30.01S
VIROQUA          N/A     64  64 100 S5        30.02S
BOSCOBEL       FOG       61  60  97 CALM      30.01S VSB 3/4
PRAIRIE DU CHI CLEAR     64  62  94 CALM      30.01S FOG
PLATTEVILLE    CLEAR     64  64  97 S5        30.03S
$$

WIZ056-057-062-063-064-067-068-310400-
SOUTH CENTRAL WISCONSIN

CITY           SKY/WX    TMP DP  RH WIND       PRES   REMARKS
REEDSBURG      CLEAR     63  63  99 CALM      30.02S
BARABOO/DELLS  CLEAR     64  62  93 CALM      30.02S
LONE ROCK      CLEAR     62  60  93 CALM      30.02R
MINERAL POINT  CLEAR     66  64  94 S5        30.03S
MADISON        MOCLDY    66  63  90 S5        30.02R
MIDDLETON        N/A     63  62  98 CALM      30.03R VSB 3/4
WATERTOWN      CLEAR     61  61 100 CALM      30.03S
MONROE         CLEAR     64  63  94 S6        30.04S
JANESVILLE     CLEAR     63  61  94 CALM      30.03S
$$

WIZ051-052-058>065-066-070>072-310400-
SOUTHEAST WISCONSIN

CITY           SKY/WX    TMP DP  RH WIND       PRES   REMARKS
MILWAUKEE      CLEAR     64  61  90 S6        30.03S FOG
WAUKESHA       CLEAR     63  61  94 CALM      30.05S
MILWAUKEE/TIMM CLEAR     63  61  94 S3        30.04S FOG
RACINE         CLEAR     64  61  90 S3        30.05F FOG
BURLINGTON     CLEAR     60  59  97 CALM      30.04S FOG
KENOSHA        CLEAR     64  62  93 S6        30.04F FOG
FOND DU LAC    CLEAR     62  61  96 S6        30.01F
SHEBOYGAN      CLEAR     61  60  97 S7        30.02S FOG
WEST BEND      FOG       61  59  94 CALM      30.03S VSB 1/2
JUNEAU         CLEAR     63  62  96 CALM      30.04S
$$

LSZ147-162-310400-
LAKE SUPERIOR

STATION/POSITION TIME  TEMP    WIND        PRES    WAVE
                       AIR SEA DIR/SP/G            HT/PER
                 (UTC) (F)     (DEG/KT/KT) (MB)    (FT/S)
W MID LAKE BUOY  0250   63 55  220/ 10/ 12 1011.4R   1
DEVILS ISLAND    0300   72     210/ 12/ 13 1011.1R
PORT WING        0200   72     200/  5/  7 1012.2R
SAXON HARBOR     0200   74     190/  7/ 11 1011.5
$$

LMZ867-665-643>646-310400-
LAKE MICHIGAN

STATION/POSITION TIME  TEMP    WIND        PRES    WAVE
                       AIR SEA DIR/SP/G            HT/PER
                 (UTC) (F)     (DEG/KT/KT) (MB)    (FT/S)
CHAMBERS ISLAND  0200   67     180/  5/ 12 1014.6R
S GREEN BAY BUOY 0300   66 63  190/ 10/ 12 1016.5S
N MID LAKE BUOY  0250   64 65  210/ 17/ 21 1014.2S   3/ 4
NORTHPORT PIER   0200   63     150/  4/  7 1014.6R
SHEBOYGAN LAKESH 0300   63     190/ 12/ 13 1016.8F
PORT WASHINGTON  0200   58     190/  5/  7 1017.6R
ATWATER BUOY     0300   54 49  170/  6/  6 1018.1F
MILWAUKEE LAKESH 0200   60     170/  2/  2   N/A
S MID LAKE BUOY  0250   67 68  160/  6/  6 1017.0S   0
KENOSHA   LAKESH 0300   65     190/  7/  9 1016.9F
$$

TC  - TEMPERATURE IN CELSIUS
VSB - VISIBILITY IN STATUTE MILES
WCI - WIND CHILL INDEX
HX  - HEAT INDEX



USA.gov is the U.S. government's official web portal to all federal, state and local government web resources and services.